Regional Weather Roundup
Issued by NWS

Home | Current Version | Previous Version | Text Only | Print | Product List | Glossary Off
Versions: 1 2 3 4 5 6 7 8 9 10 11 12 13 14 15 16 17 18 19 20 21 22 23 24 25 26 27 28 29 30 31 32 33 34 35 36 37 38 39 40 41 42 43 44 45 46 47 48 49 50

000
ASUS43 KMKX 230400
RWRWI

WISCONSIN REGIONAL WEATHER ROUNDUP
NATIONAL WEATHER SERVICE MILWAUKEE/SULLIVAN WI
1100 PM CDT SAT APR 22 2017

NOTE: "FAIR" INDICATES FEW OR NO CLOUDS BELOW 12,000 FEET WITH NO
SIGNIFICANT WEATHER AND/OR OBSTRUCTIONS TO VISIBILITY.

WIZ001-002-006>008-014>016-023>028-230500-
NORTHWEST WISCONSIN

CITY           SKY/WX    TMP DP  RH WIND       PRES   REMARKS
SUPERIOR ARPT  MOCLDY    53  40  62 NE7       30.05R
ASHLAND        CLEAR     49  38  65 E9        30.07S
HAYWARD        PTCLDY    46  34  62 S5        30.06F
SIREN          CLEAR     54  32  42 CALM      30.08S
CUMBERLAND     CLEAR     50  32  50 SW6       30.09S
RICE LAKE      CLEAR     48  37  65 CALM      30.10S
CHETEK         CLEAR     49  35  56 SW3       30.10R
LADYSMITH      CLEAR     51  35  53 CALM      30.10R
EAU CLAIRE     NOT AVBL
MENOMONIE      CLEAR     57  32  39 SW3       30.10S
NEW RICHMOND   CLEAR     50  42  74 CALM      30.11R
OSCEOLA        CLEAR     51  37  57 SW3       30.12S
$$

WIZ003>005-009-010-017-018-230500-
NORTH CENTRAL WISCONSIN

CITY           SKY/WX    TMP DP  RH WIND       PRES   REMARKS
MANITOWISH WTR PTCLDY    52  32  45 SW6       30.04F
ARBOR VITAE    PTCLDY    47  35  62 CALM      30.05F
WOODRUFF       PTCLDY    47  35  62 CALM      30.05F
RHINELANDER    CLEAR     49  32  52 SW6       30.07S
EAGLE RIVER    CLEAR     47  29  50 SW6       30.05S
LAND O LAKES   CLEAR     53  29  39 W3        30.05S
PHILLIPS       CLEAR     48  35  61 SW3       30.07S
TOMAHAWK       CLEAR     51  32  47 SW3       30.08S
MEDFORD        CLEAR     51  33  48 SW6       30.09S
MERRILL        CLEAR     49  33  54 CALM      30.09S
$$

WIZ029-030-035-036-043>047-230500-
CENTRAL WISCONSIN

CITY           SKY/WX    TMP DP  RH WIND       PRES   REMARKS
WAUSAU         CLEAR     52  33  48 SW8       30.08S
MOSINEE        CLEAR     46  32  57 SW6       30.11F
MARSHFIELD     CLEAR     49  31  49 SW7       30.10S
STEVENS POINT  CLEAR     41  31  67 CALM      30.11F
WAUPACA        CLEAR     46  34  62 CALM      30.12S
WAUTOMA        CLEAR     41  33  73 CALM      30.12F
WISC RAPIDS    CLEAR     45  32  60 SW5       30.12S
CAMP DOUGLAS   NOT AVBL
$$

WIZ011>013-019>022-031-037>040-048>050-230500-
NORTHEAST WISCONSIN

CITY           SKY/WX    TMP DP  RH WIND       PRES   REMARKS
ANTIGO         CLEAR     47  33  57 SW8       30.08F
SHAWANO        CLEAR     55  32  41 CALM      30.09S
OCONTO         CLEAR     52  32  45 SW5       30.08S
STURGEON BAY   CLEAR     49  33  54 S10       30.08F
GREEN BAY      CLEAR     51  37  58 S6        30.10F
MANITOWOC      NOT AVBL
APPLETON       PTCLDY    48  30  49 SW9       30.10F
CLINTONVILLE   CLEAR     52  32  46 SW3       30.09F
OSHKOSH        CLEAR     50  32  50 S9        30.11F
$$

WIZ032>034-041-042-053>061-230500-
SOUTHWEST WISCONSIN

CITY           SKY/WX    TMP DP  RH WIND       PRES   REMARKS
LA CROSSE      CLEAR     50  39  66 S7        30.12F
SPARTA         CLEAR     40  32  73 CALM      30.15S
VIROQUA        CLEAR     51  27  39 SW5       30.14F
BOSCOBEL       CLEAR     46  36  68 CALM      30.15F
PRAIRIE DU CHI CLEAR     46  35  63 CALM      30.15F
PLATTEVILLE    CLEAR     53  26  35 SW5       30.17S
$$

WIZ056-057-062-063-064-067-068-230500-
SOUTH CENTRAL WISCONSIN

CITY           SKY/WX    TMP DP  RH WIND       PRES   REMARKS
REEDSBURG      CLEAR     47  33  57 CALM      30.14F
BARABOO/DELLS  CLEAR     44  33  64 CALM      30.13F
LONE ROCK      NOT AVBL
MINERAL POINT  CLEAR     54  23  30 SW3       30.16S
MADISON        CLEAR     47  33  58 S3        30.14F
MIDDLETON      CLEAR     45  40  81 CALM      30.16S
WATERTOWN      CLEAR     41  36  80 CALM      30.15S
MONROE         CLEAR     54  27  35 S3        30.16S
JANESVILLE     CLEAR     48  30  49 CALM      30.16S
$$

WIZ051-052-058>065-066-070>072-230500-
SOUTHEAST WISCONSIN

CITY           SKY/WX    TMP DP  RH WIND       PRES   REMARKS
MILWAUKEE      CLEAR     46  27  47 CALM      30.15F
WAUKESHA       CLEAR     41  27  56 CALM      30.17
MILWAUKEE/TIMM CLEAR     43  23  45 CALM      30.16F
RACINE         CLEAR     42  28  57 CALM      30.17F
KENOSHA        CLEAR     41  30  65 CALM      30.16F
FOND DU LAC    CLEAR     50  33  52 SW6       30.12F
SHEBOYGAN      CLEAR     42  33  70 SW6       30.13F
WEST BEND      CLEAR     43  32  65 CALM      30.15S
JUNEAU         CLEAR     49  33  54 CALM      30.15S
$$

LSZ147-162-230500-
LAKE SUPERIOR

STATION/POSITION TIME  TEMP    WIND        PRES    WAVE
                       AIR SEA DIR/SP/G            HT/PER
                 (UTC) (F)     (DEG/KT/KT) (MB)    (FT/S)
DEVILS ISLAND    0300   49      10/ 14/ 15 1018.4R
PORT WING        0240   47      60/  5/  9 1017.6
SAXON HARBOR     0330   46      50/  2/  4 1017.9F
$$

LMZ867-665-643>646-230500-
LAKE MICHIGAN

STATION/POSITION TIME  TEMP    WIND        PRES    WAVE
                       AIR SEA DIR/SP/G            HT/PER
                 (UTC) (F)     (DEG/KT/KT) (MB)    (FT/S)
CHAMBERS ISLAND  0340   50     180/  8/ 16 1017.3F
N MID LAKE BUOY  0250   42 37  190/ 12/ 14 1019.4F   1/ 3
NORTHPORT PIER   0340   49     200/  3/  9 1017.3F
KEWAUNEE LAKESHO 0330   50     230/  6/ 12 1018.9F
SHEBOYGAN LAKESH 0300   50     210/  7/  7 1020.7F
PORT WASHINGTON  0340   44     250/  3/  5 1021.7F
MILWAUKEE LAKESH 0330   49     220/  1/  1   N/A
KENOSHA   LAKESH 0300   49      CALM  /  3 1021.3
$$

TC  - TEMPERATURE IN CELSIUS
VSB - VISIBILITY IN STATUTE MILES
WCI - WIND CHILL INDEX
HX  - HEAT INDEX





USA.gov is the U.S. government's official web portal to all federal, state and local government web resources and services.